Tracking 19192 objects as of 21-Jun-2018
HD Live streaming from Space Station
objects crossing your sky now

GLOBALSTAR M034

Track GLOBALSTAR M034 now!
10-day predictions
GLOBALSTAR M034 is classified as:


NORAD ID: 25962
Int'l Code: 1999-062B
Perigee: 1,769.6 km
Apogee: 1,793.7 km
Inclination: 52.0 °
Period: 122.1 minutes
Semi major axis: 8152 km
RCS: 2.591 m2 (large)
Launch date: November 22, 1999
Source: Globalstar (GLOB)
Launch site: TYURATAM MISSILE AND SPACE COMPLEX (TTMTR)
aabbcc
Your satellite tracking list
Your tracking list is empty




NASA's NSSDC Master Catalog

Two Line Element Set (TLE):
1 25962U 99062B   18172.45036116 -.00000065 +00000-0 +24349-3 0  9992
2 25962 051.9840 166.5407 0014765 258.7134 261.2566 11.79385477837171
Source of the keplerian elements: AFSPC